{"data":{"norad_id":44476,"intl_designator":"2019-049B","name":"INTELSAT 39 (IS-39)","alt_names":[],"object_type":"PAYLOAD","status":"ACTIVE","operator":null,"country":"ITSO","launch_date":"2019-08-06","launch_site_code":"FRGUI","launch_vehicle":null,"mission":null,"orbit_class":"UNKNOWN","rcs_meters":null,"size_class":null,"mass_kg":null,"dimensions":null,"purposes":["comms"],"wikipedia_slug":null,"has_3d_model":false,"image_url":null,"decayed_at":null,"tle_current":{"epoch":"2026-09-19T12:08:04.733376Z","epoch_age_seconds":100352,"freshness":"FRESH","line1":"1 44476U 19049B   26262.50561034  .00000029  00000+0  00000+0 0  9999","line2":"2 44476   0.0176 199.7202 0000878 257.1016 145.5634  1.00271987 26074","mean_motion":1.00271987,"eccentricity":8.78e-5,"inclination_deg":0.0176,"raan_deg":199.7202,"arg_perigee_deg":257.1016,"mean_anomaly_deg":145.5634,"bstar":0,"rev_number":2607,"period_min":1436.0940109823,"perigee_km":35782.836274859,"apogee_km":35790.240391847,"semimajor_km":42164.675333353,"source":"CELESTRAK","updated_at":"2026-09-20T09:00:35.524440Z"}}}